| time (UTC) | temp F | wind direction | speed MPH | gust MPH | rain 1hr in | rain 24hr in | rain mn in | humidity % | barometer mb |
| 20260505172324 | 79 | 162 | 1.0 | 9.0 | 0.00 | 0.00 | 0.00 | 66 | 1020.2 |
| 20260505171317 | 79 | 134 | 2.0 | 9.0 | 0.00 | 0.00 | 0.00 | 68 | 1020.5 |
| 20260505170334 | 79 | 145 | 3.0 | 9.0 | 0.00 | 0.00 | 0.00 | 68 | 1020.6 |
| 20260505165320 | 79 | 193 | 4.0 | 12.0 | 0.00 | 0.00 | 0.00 | 68 | 1020.7 |
| 20260505164334 | 79 | 161 | 3.0 | 9.0 | 0.00 | 0.00 | 0.00 | 68 | 1020.8 |
| 20260505163322 | 78 | 165 | 4.0 | 8.0 | 0.00 | 0.00 | 0.00 | 69 | 1021.1 |
| 20260505162336 | 78 | 153 | 1.0 | 6.0 | 0.00 | 0.00 | 0.00 | 72 | 1021.1 |
| 20260505161325 | 78 | 195 | 4.0 | 8.0 | 0.00 | 0.00 | 0.00 | 69 | 1021.1 |
| 20260505160359 | 79 | 175 | 4.0 | 9.0 | 0.00 | 0.00 | 0.00 | 70 | 1021.3 |
| 20260505153333 | 77 | 134 | 3.0 | 7.0 | 0.00 | 0.00 | 0.00 | 72 | 1021.3 |
| 20260505152320 | 76 | 137 | 1.0 | 9.0 | 0.00 | 0.00 | 0.00 | 72 | 1021.4 |
| 20260505151334 | 77 | 170 | 4.0 | 8.0 | 0.00 | 0.00 | 0.00 | 73 | 1021.3 |
| 20260505150321 | 76 | 181 | 3.0 | 9.0 | 0.00 | 0.00 | 0.00 | 73 | 1021.3 |
| 20260505140329 | 72 | 212 | 2.0 | 9.0 | 0.00 | 0.00 | 0.00 | 80 | 1021.1 |
| 20260505124330 | 60 | 167 | 0.0 | 0.0 | 0.00 | 0.00 | 0.00 | 100 | 1020.9 |
| 20260505123319 | 58 | 167 | 0.0 | 0.0 | 0.00 | 0.00 | 0.00 | 100 | 1021.0 |
| 20260505122333 | 57 | 167 | 0.0 | 0.0 | 0.00 | 0.00 | 0.00 | 100 | 1020.9 |
| 20260505121319 | 56 | 167 | 0.0 | 0.0 | 0.00 | 0.00 | 0.00 | 100 | 1020.9 |
| 20260505120334 | 54 | 167 | 0.0 | 1.0 | 0.00 | 0.00 | 0.00 | 100 | 1020.9 |
| 20260505115322 | 53 | 167 | 0.0 | 0.0 | 0.00 | 0.00 | 0.00 | 100 | 1020.7 |
| 20260505114338 | 53 | 167 | 0.0 | 0.0 | 0.00 | 0.00 | 0.00 | 100 | 1020.7 |
| 20260505113328 | 52 | 167 | 0.0 | 0.0 | 0.00 | 0.00 | 0.00 | 100 | 1020.7 |
| 20260505112341 | 52 | 167 | 0.0 | 0.0 | 0.00 | 0.00 | 0.00 | 100 | 1020.5 |
| 20260505111328 | 51 | 167 | 0.0 | 0.0 | 0.00 | 0.00 | 0.00 | 100 | 1020.6 |
| 20260505110318 | 51 | 167 | 0.0 | 0.0 | 0.00 | 0.00 | 0.00 | 100 | 1020.5 |
| 20260505101324 | 52 | 167 | 0.0 | 0.0 | 0.00 | 0.00 | 0.00 | 100 | 1019.7 |
| 20260505100339 | 52 | 167 | 0.0 | 0.0 | 0.00 | 0.00 | 0.00 | 100 | 1019.7 |
| 20260505095333 | 52 | 167 | 0.0 | 0.0 | 0.00 | 0.00 | 0.00 | 100 | 1019.6 |
| 20260505094322 | 52 | 167 | 0.0 | 0.0 | 0.00 | 0.00 | 0.00 | 100 | 1019.6 |
| 20260505093339 | 52 | 167 | 0.0 | 0.0 | 0.00 | 0.00 | 0.00 | 100 | 1019.6 |
| 20260505092324 | 52 | 167 | 0.0 | 0.0 | 0.00 | 0.00 | 0.00 | 100 | 1019.6 |
| 20260505091339 | 52 | 167 | 0.0 | 0.0 | 0.00 | 0.00 | 0.00 | 100 | 1019.4 |
| 20260505090331 | 53 | 167 | 0.0 | 0.0 | 0.00 | 0.00 | 0.00 | 100 | 1019.5 |
| 20260505085345 | 53 | 167 | 0.0 | 0.0 | 0.00 | 0.00 | 0.00 | 100 | 1019.5 |
| 20260505084341 | 53 | 167 | 0.0 | 0.0 | 0.00 | 0.00 | 0.00 | 100 | 1019.4 |
| 20260505083337 | 53 | 167 | 0.0 | 0.0 | 0.00 | 0.00 | 0.00 | 100 | 1019.3 |
| 20260505082351 | 53 | 167 | 0.0 | 0.0 | 0.00 | 0.00 | 0.00 | 100 | 1019.2 |
| 20260505081345 | 53 | 167 | 0.0 | 0.0 | 0.00 | 0.00 | 0.00 | 100 | 1019.1 |
| 20260505080339 | 53 | 167 | 0.0 | 0.0 | 0.00 | 0.00 | 0.00 | 100 | 1019.1 |
| 20260504221319 | 73 | 149 | 5.0 | 15.0 | 0.00 | 0.00 | 0.00 | 64 | 1019.1 |
| 20260504220354 | 73 | 214 | 1.0 | 12.0 | 0.00 | 0.00 | 0.00 | 65 | 1019.1 |
| 20260504215325 | 73 | 140 | 0.0 | 8.0 | 0.00 | 0.00 | 0.00 | 64 | 1019.0 |
| 20260504214334 | 73 | 199 | 2.0 | 11.0 | 0.00 | 0.00 | 0.00 | 63 | 1019.0 |
| 20260504213326 | 74 | 204 | 3.0 | 13.0 | 0.00 | 0.00 | 0.00 | 62 | 1019.0 |
| 20260504212343 | 74 | 181 | 4.0 | 15.0 | 0.00 | 0.00 | 0.00 | 61 | 1019.0 |
| 20260504211330 | 74 | 128 | 0.0 | 11.0 | 0.00 | 0.00 | 0.00 | 62 | 1018.9 |
| 20260504210319 | 75 | 139 | 1.0 | 12.0 | 0.00 | 0.00 | 0.00 | 60 | 1018.9 |
| 20260504205332 | 76 | 181 | 1.0 | 15.0 | 0.00 | 0.00 | 0.00 | 59 | 1018.9 |
| 20260504204318 | 77 | 192 | 0.0 | 13.0 | 0.00 | 0.00 | 0.00 | 60 | 1018.8 |
| 20260504203354 | 77 | 200 | 4.0 | 14.0 | 0.00 | 0.00 | 0.00 | 57 | 1018.8 |
| 20260504202319 | 78 | 150 | 3.0 | 10.0 | 0.00 | 0.00 | 0.00 | 55 | 1018.8 |
| 20260504201332 | 79 | 197 | 1.0 | 9.0 | 0.00 | 0.00 | 0.00 | 55 | 1018.9 |
| 20260504200320 | 80 | 285 | 2.0 | 9.0 | 0.00 | 0.00 | 0.00 | 54 | 1019.1 |
| 20260504195334 | 80 | 203 | 1.0 | 7.0 | 0.00 | 0.00 | 0.00 | 51 | 1019.2 |
| 20260504194320 | 80 | 242 | 1.0 | 7.0 | 0.00 | 0.00 | 0.00 | 49 | 1019.4 |
| 20260504193331 | 79 | 199 | 0.0 | 9.0 | 0.00 | 0.00 | 0.00 | 53 | 1019.5 |
| 20260504192345 | 79 | 122 | 2.0 | 6.0 | 0.00 | 0.00 | 0.00 | 50 | 1019.6 |
| 20260504191337 | 79 | 359 | 0.0 | 5.0 | 0.00 | 0.00 | 0.00 | 51 | 1019.7 |
| 20260504190329 | 79 | 110 | 1.0 | 7.0 | 0.00 | 0.00 | 0.00 | 51 | 1019.8 |
| 20260504185318 | 79 | 147 | 0.0 | 8.0 | 0.00 | 0.00 | 0.00 | 51 | 1020.1 |
| 20260504184329 | 79 | 201 | 3.0 | 10.0 | 0.00 | 0.00 | 0.00 | 53 | 1020.1 |
| 20260504183318 | 78 | 127 | 2.0 | 9.0 | 0.00 | 0.00 | 0.00 | 52 | 1020.2 |
| 20260504182331 | 78 | 135 | 1.0 | 6.0 | 0.00 | 0.00 | 0.00 | 54 | 1020.2 |
| 20260504181318 | 78 | 346 | 0.0 | 4.0 | 0.00 | 0.00 | 0.00 | 51 | 1020.2 |
| 20260504180333 | 78 | 338 | 1.0 | 7.0 | 0.00 | 0.00 | 0.00 | 53 | 1020.3 |
| 20260504175318 | 78 | 164 | 1.0 | 5.0 | 0.00 | 0.00 | 0.00 | 57 | 1020.4 |
| 20260504174333 | 77 | 212 | 1.0 | 4.0 | 0.00 | 0.00 | 0.00 | 55 | 1020.5 |
| 20260504173320 | 77 | 192 | 1.0 | 4.0 | 0.00 | 0.00 | 0.00 | 57 | 1020.5 |